RH
78 78 79 79 80 80 81 80 79 79 80 80 81 82 84 87 82 28 16 25 33 55 56 18 18 16 18 25 28 28 34 27 22 21 22 17 23 20 22 28 23 23 27 34 59
78 78 77 77 77 78 79 79 79 79 79 81 81 82 84 86 24 15 31 36 48 55 19 20 20 18 18 19 24 30 31 25 20 21 22 18 19 20 24 24 22 20 21 32 47
77 77 78 78 77 78 80 80 80 79 79 81 83 84 86 65 22 17 37 40 47 42 18 19 19 18 21 19 18 19 27 18 17 16 17 19 20 17 19 22 19 22 21 30 37
79 77 76 75 76 76 78 80 81 81 80 81 83 85 88 35 20 16 38 41 45 23 18 19 20 24 26 26 20 24 17 19 21 20 21 19 16 16 15 16 12 14 15 18 25
79 76 74 75 76 79 81 82 82 82 82 83 83 84 52 21 16 16 36 34 19 19 20 22 22 25 27 24 23 25 21 22 22 23 24 23 24 22 20 15 11 10 10 12 14
76 75 75 76 79 82 83 84 84 83 84 84 83 86 33 17 14 14 17 18 20 20 21 20 23 23 25 25 27 24 25 25 22 23 23 26 25 22 19 13 14 12 12 10 14
76 75 74 77 80 83 82 83 84 84 85 83 81 44 20 18 15 15 18 19 20 22 24 22 22 25 23 26 24 25 29 25 23 22 24 24 26 24 18 15 16 14 11 12 12
75 74 75 80 81 83 82 84 83 80 81 79 78 30 16 17 14 17 16 18 20 21 24 24 24 26 26 24 25 27 27 29 24 25 25 26 37 22 18 19 21 18 16 15 14
77 78 78 78 82 83 80 80 80 76 75 72 41 21 16 26 16 16 18 19 21 21 23 21 25 26 24 24 22 24 27 29 29 23 27 28 35 26 22 25 27 24 20 16 14
81 86 86 84 84 84 79 74 66 62 54 30 21 19 14 15 18 19 16 21 22 22 24 24 23 26 17 20 28 29 30 29 29 24 27 33 33 29 28 29 29 25 23 20 16
84 88 88 86 84 83 54 27 20 19 20 19 17 15 14 15 19 16 17 19 19 20 19 20 26 23 22 24 24 25 25 27 26 27 36 33 34 32 31 31 34 35 30 23 18
84 88 89 86 85 84 40 16 31 34 20 23 22 21 21 20 19 16 14 16 17 20 17 21 23 20 21 21 22 21 24 27 27 28 32 31 34 30 28 36 36 33 33 32 29
84 90 90 84 84 49 27 29 31 32 20 21 20 21 20 19 17 18 16 16 18 20 17 21 19 17 18 21 20 24 27 31 36 30 30 30 37 32 34 37 44 44 43 35 35
88 91 89 83 52 22 27 34 33 34 20 22 22 21 18 18 23 16 16 20 18 23 21 18 17 19 19 19 22 30 28 42 42 37 34 28 40 34 39 48 51 50 56 50 46
89 91 90 86 26 22 30 34 35 36 30 22 22 14 14 21 20 21 17 16 21 20 19 19 18 22 23 20 23 27 30 43 40 37 34 33 44 35 40 65 64 61 68 64 61
89 90 90 36 25 29 31 36 38 31 30 26 20 18 16 18 18 16 16 16 17 20 20 16 17 22 22 21 22 26 27 40 39 37 44 35 49 38 63 78 76 78 76 74 73
89 90 75 24 22 31 35 36 27 26 20 24 22 18 17 19 18 17 20 20 21 23 20 15 17 17 22 24 23 26 34 69 53 57 42 36 47 56 56 63 81 89 83 82 82
90 89 51 22 26 33 32 26 29 19 16 22 19 19 22 20 18 19 20 22 21 20 22 22 23 16 17 26 30 34 40 74 99 62 67 40 67 56 48 52 61 78 78 82 89
91 28 16 18 31 32 26 25 19 17 18 21 19 20 21 20 22 19 20 22 22 20 24 23 22 17 20 25 27 30 34 45 75 65 72 46 32 42 39 39 43 68 81 88 90
32 16 11 29 30 30 26 28 17 18 19 17 20 18 20 19 23 21 20 22 25 21 18 22 23 16 15 25 28 27 30 45 47 94 59 26 25 30 38 45 44 63 82 84 89
29 12 28 34 31 25 23 18 18 20 18 18 18 21 18 22 22 20 20 24 24 23 20 18 21 20 19 20 22 25 24 25 40 41 50 37 32 26 32 42 44 56 70 76 88
22 10 34 34 23 12 15 16 34 23 21 20 18 18 19 22 24 23 22 23 22 19 23 20 24 21 15 18 22 24 22 22 31 35 34 39 35 23 30 37 41 54 55 62 66
22 16 37 31 16 10 14 21 22 25 23 22 22 21 21 25 29 25 24 30 25 23 23 24 24 24 21 27 22 18 15 19 18 34 33 33 26 24 27 36 43 46 54 58 58
21 17 37 40 17 13 13 19 24 22 21 20 21 23 26 26 26 30 30 33 28 24 46 32 29 28 25 21 18 21 17 18 17 31 22 18 14 23 29 38 45 46 50 54 54
31 18 12 28 22 20 13 15 20 29 22 20 26 24 25 29 31 32 29 30 26 37 30 29 33 22 20 17 16 18 19 17 17 22 28 18 19 16 27 33 41 44 43 49 48
40 24 13 12 13 15 22 16 17 20 23 25 23 25 23 26 26 31 29 25 25 25 25 22 25 19 25 19 21 27 24 24 23 25 25 24 21 14 25 28 36 40 42 45 44
60 26 19 24 12 15 17 14 14 16 22 18 21 23 27 22 20 20 20 21 21 22 26 24 25 28 25 20 22 27 23 22 22 24 24 18 21 24 30 31 32 39 41 41 40
Wind_Speed
11 11 12 11 11 12 12 13 13 12 11 12 12 13 13 13 15 8 10 6 8 10 11 3 4 0 5 3 6 5 7 11 13 13 11 9 7 12 2 11 8 4 8 6 10
10 11 11 12 11 12 12 12 13 12 12 12 11 12 11 11 11 10 5 2 6 9 6 7 5 2 3 3 4 7 8 12 10 10 11 12 13 12 12 10 15 12 7 2 8
10 10 10 12 12 12 12 12 13 13 12 11 11 12 10 10 10 7 4 2 6 11 5 6 4 5 3 4 3 3 11 9 9 11 12 14 15 14 15 16 16 16 10 10 7
10 10 11 12 13 13 13 12 13 13 12 11 10 11 10 9 2 6 3 2 7 9 7 6 5 4 5 5 2 8 7 7 10 9 10 13 14 16 16 15 15 15 16 13 11
11 12 13 14 14 14 13 13 13 13 12 10 10 8 8 6 6 6 3 5 6 6 7 8 7 5 8 7 7 9 8 10 11 12 13 14 16 16 16 15 14 14 16 18 14
12 13 14 15 15 14 14 13 13 13 11 10 8 7 8 2 3 1 2 2 4 6 6 7 6 7 9 9 8 9 12 13 11 9 11 12 14 14 12 4 9 12 15 15 14
13 14 15 16 16 15 14 13 11 8 8 7 5 6 8 7 1 3 1 2 3 5 8 4 6 8 10 10 4 10 10 11 1 5 10 8 14 16 12 6 10 11 11 12 11
13 15 15 15 16 15 14 10 5 1 3 4 4 8 2 4 3 3 2 1 2 2 4 4 4 6 5 9 10 8 7 8 9 4 3 5 12 10 4 10 10 14 13 11 10
13 15 16 16 16 15 13 5 2 2 3 4 6 7 5 4 3 3 3 6 4 3 3 4 5 5 7 10 11 7 13 12 8 1 5 7 14 13 13 14 14 15 14 15 11
14 14 15 15 16 14 10 7 2 4 5 5 4 7 4 2 3 3 1 4 5 4 9 6 6 10 3 10 10 15 15 12 11 9 11 11 13 11 11 11 12 12 13 15 14
13 14 15 16 17 13 7 5 6 6 7 6 4 3 2 5 3 4 2 5 6 9 6 1 10 7 9 9 12 13 15 14 11 7 10 11 8 5 6 5 8 13 12 13 13
12 14 16 16 17 12 8 4 4 6 3 2 2 3 1 3 5 4 7 6 8 8 7 8 3 7 9 11 13 15 13 13 7 3 8 12 4 3 10 12 15 11 11 11 11
12 13 15 17 14 7 5 2 3 3 5 6 3 4 1 5 4 2 7 8 7 7 6 8 6 6 9 11 13 15 10 15 15 13 7 16 8 8 18 13 15 18 19 15 13
10 12 15 18 4 1 1 1 3 4 6 11 7 4 4 3 5 2 3 4 4 5 8 6 3 6 10 10 12 12 17 13 9 8 7 10 3 7 16 15 18 16 16 17 13
9 10 14 10 6 3 4 1 2 4 6 7 6 4 1 5 3 4 1 4 6 5 4 6 6 9 9 12 11 11 13 8 6 9 7 12 5 5 19 16 22 19 15 14 12
8 9 14 4 4 3 1 2 4 7 4 6 5 3 5 2 2 4 2 4 2 4 6 5 3 3 8 14 7 14 14 5 7 8 2 13 5 5 12 12 18 16 16 14 15
7 8 8 5 2 3 3 4 7 8 3 8 5 3 3 2 4 2 2 5 6 5 2 5 4 1 6 13 3 15 14 3 3 4 7 13 3 8 12 11 11 12 14 14 14
8 6 5 6 3 4 5 6 10 3 5 4 4 5 5 1 3 1 3 2 4 6 6 4 5 4 8 6 8 8 8 3 3 6 6 8 8 6 9 5 8 14 14 13 14
5 6 5 4 6 5 7 10 9 3 7 9 5 7 6 5 4 4 1 1 3 6 6 4 0 3 4 5 8 9 7 4 3 5 6 2 9 7 10 14 15 16 16 16 14
5 5 7 8 8 6 8 14 3 3 5 8 8 6 6 7 5 3 2 4 3 2 6 3 5 3 3 3 4 4 3 3 2 4 6 4 10 9 14 15 15 17 16 14 13
7 5 7 8 6 7 12 17 5 7 7 7 6 6 5 5 5 3 2 5 2 3 4 5 4 6 3 2 6 2 2 3 4 3 5 8 8 8 10 10 12 14 12 13 13
6 8 8 9 9 9 14 12 2 11 6 4 4 6 8 7 5 4 2 2 3 1 4 4 6 5 2 4 1 3 4 6 5 6 4 5 5 7 7 8 9 11 10 10 11
6 6 4 8 10 14 11 6 8 10 10 9 9 7 4 7 5 5 4 4 4 3 3 2 4 6 9 5 4 5 1 4 6 5 7 5 6 5 5 9 7 10 10 9 10
7 8 6 8 12 14 18 15 11 10 9 6 7 8 8 7 4 5 5 4 4 3 2 2 7 8 8 7 5 9 8 6 6 5 9 3 5 5 4 5 7 8 8 9 8
8 13 12 12 17 16 16 12 19 10 8 12 7 12 11 7 7 6 7 6 5 5 4 5 7 6 11 11 11 14 12 11 13 12 7 8 6 3 2 5 6 9 8 9 10
11 9 7 12 21 25 17 20 21 18 17 12 12 17 14 8 8 10 11 8 5 8 6 5 5 6 12 6 4 10 9 10 12 12 12 13 12 1 6 8 7 8 9 9 9
7 7 6 12 16 19 25 24 23 17 14 13 18 11 16 14 6 6 4 4 1 5 8 5 4 5 4 2 8 12 3 11 12 7 9 6 6 8 7 7 8 9 9 10 10
Wind_Direction
328 331 321 325 324 324 320 317 315 314 317 319 325 330 332 328 297 237 45 18 333 324 304 250 231 318 226 213 258 263 255 257 265 274 290 283 279 276 297 291 255 270 293 42 124
328 327 327 324 324 319 317 313 310 314 316 310 326 324 324 330 283 63 77 333 314 318 324 352 356 264 218 239 220 244 255 279 348 329 301 293 293 295 278 255 253 233 219 319 121
329 324 329 325 322 319 314 311 311 311 303 316 323 311 324 318 261 56 104 318 313 285 336 323 322 293 276 268 217 249 264 331 305 302 308 294 283 277 271 266 265 278 270 145 209
329 325 334 326 321 319 313 314 311 304 305 314 309 312 326 255 16 72 107 301 299 297 300 328 308 276 284 283 269 274 238 289 296 295 295 281 293 282 276 277 286 282 275 276 211
325 338 333 327 323 318 319 314 304 298 300 301 302 311 282 209 75 111 204 217 271 315 348 349 329 331 285 316 292 251 291 306 288 282 274 277 271 275 275 271 267 259 255 257 258
336 340 331 327 325 328 321 309 298 292 288 289 289 298 249 209 80 89 2 282 336 320 347 338 349 334 288 298 286 345 301 291 280 279 289 271 281 278 272 269 277 261 253 250 249
339 335 330 330 333 328 319 310 298 283 267 265 269 268 254 63 38 332 232 335 321 325 323 341 321 296 338 301 330 295 285 274 16 332 304 327 273 249 250 241 275 275 245 234 253
336 330 330 333 333 325 321 310 351 107 199 229 263 255 21 112 346 223 307 211 268 281 295 309 299 288 286 310 250 269 252 340 18 333 28 283 300 314 358 301 287 287 292 282 231
332 327 328 336 328 326 316 282 61 140 192 228 242 246 124 144 221 0 319 319 325 252 267 261 257 288 261 275 270 199 337 341 327 298 292 275 301 301 310 317 305 295 279 263 256
327 322 326 328 327 323 301 254 255 240 216 230 259 244 159 354 349 318 9 296 289 266 226 239 244 259 330 354 348 324 327 324 318 353 342 306 320 333 360 322 302 299 277 274 258
326 325 326 326 325 319 282 214 204 182 213 333 34 344 71 340 192 194 355 292 243 241 332 260 280 9 342 339 323 308 305 302 349 23 324 358 323 34 21 347 346 338 316 305 293
325 325 324 327 320 307 279 272 15 356 174 196 285 269 319 341 256 189 323 314 315 297 302 218 258 7 316 306 310 312 315 341 303 207 300 336 219 152 47 30 359 329 325 308 293
321 322 325 327 320 288 51 37 318 272 239 171 223 277 340 285 297 350 347 319 311 285 335 294 23 331 313 315 341 324 347 327 304 313 239 331 182 225 26 23 8 349 344 318 318
311 318 326 328 296 9 55 73 258 276 235 156 196 160 199 285 225 3 22 313 246 319 323 284 32 311 321 323 344 304 1 322 288 288 348 28 322 65 19 6 358 354 336 325 324
299 314 318 327 330 276 38 238 215 242 259 134 143 71 200 260 346 142 133 242 302 331 281 70 328 330 309 348 330 313 324 323 305 284 325 15 313 338 17 351 340 338 348 339 326
283 308 321 216 231 61 301 198 236 229 226 149 144 184 226 211 171 312 283 218 291 273 216 287 335 286 326 315 294 299 307 210 275 264 243 17 18 340 11 336 324 351 350 352 339
267 293 296 302 17 129 179 210 220 249 141 153 172 196 245 184 183 314 350 38 16 301 53 259 168 22 321 319 184 354 349 6 326 3 28 3 322 45 350 352 357 348 359 356 352
262 291 191 274 194 203 209 221 249 8 178 96 154 165 224 190 170 269 236 174 104 326 283 321 191 3 11 4 326 332 331 36 299 353 332 311 6 20 332 85 48 15 16 14 5
267 214 233 180 195 228 234 218 252 170 134 161 152 211 178 196 279 241 299 65 48 4 341 326 15 122 24 335 339 354 15 0 300 205 261 227 69 167 27 24 24 30 15 18 7
228 225 216 150 186 220 238 238 200 130 136 178 220 220 200 176 219 227 190 101 142 1 325 62 279 122 48 256 190 324 334 253 136 333 320 29 63 7 7 12 18 29 21 11 11
237 216 114 170 184 217 230 230 181 183 174 196 219 184 227 182 236 210 115 132 193 153 305 313 263 137 191 176 347 235 350 342 267 350 330 320 73 11 13 20 24 41 24 18 21
232 221 147 180 203 214 228 215 163 176 179 173 240 231 204 178 197 221 225 37 115 267 294 46 314 281 15 96 234 310 339 324 327 348 302 263 75 31 38 54 36 61 38 38 43
218 192 173 203 214 212 216 192 209 175 192 182 188 197 182 188 205 212 189 87 146 228 326 56 199 276 156 169 176 240 343 294 304 264 274 312 72 34 57 75 62 66 59 54 49
231 193 163 210 249 242 206 209 197 204 194 191 160 160 167 187 183 175 205 155 182 230 10 288 266 268 300 344 315 285 289 235 287 274 344 299 360 88 76 91 98 91 94 85 65
222 223 189 192 208 214 226 204 199 177 214 188 183 200 179 177 180 203 205 150 182 160 211 253 264 267 279 280 277 279 273 265 242 256 280 359 316 2 106 128 116 126 126 111 98
196 224 210 227 198 204 211 213 205 184 169 193 223 196 193 184 194 186 175 195 197 178 199 196 279 288 286 251 247 262 258 245 243 253 260 274 283 74 130 135 150 141 141 136 126
257 207 240 208 207 196 212 209 202 184 204 194 200 182 199 204 155 108 132 118 141 187 201 219 275 297 271 205 280 261 271 229 229 230 232 256 52 151 169 175 169 155 157 150 146